[[{"header":{"parameterUnit":"m.s-1","parameterCategory":1,"la1":30.2992,"la2":30.254,"lo1":-89.0895,"lo2":-89.0443,"dy":0.0025,"dx":0.0025,"nx":19,"ny":19,"refTime":"2026-03-20T09:00:00:Z","depth":0,"parameterNumber":2,"parameterNumberName":"U-component_of_WINDS"},"data":[0,0,0,-0.103,-0.103,-0.1008,-0.1008,-0.0986,-0.0986,0,0,0,0,0,0,0,0,0,0,0,-0.1041,-0.1041,-0.103,-0.103,-0.1008,-0.1008,-0.0986,-0.0986,0,0,0,0,0,0,0,0,0,0,0,-0.1041,-0.1041,-0.1041,-0.103,-0.1008,-0.1008,-0.0986,-0.1,0,0,0,0,0,0,0,0,0,0,-0.1021,-0.1035,-0.1041,-0.1041,-0.103,-0.1008,-0.1008,-0.1001,-0.0999,-0.0999,0,-0.1,0,-0.0993,-0.0985,-0.0985,0,0,0,-0.1027,-0.1036,-0.1026,-0.1041,-0.103,-0.1008,-0.1017,-0.1,-0.0998,-0.0997,-0.1,-0.0999,-0.0992,-0.0985,-0.0985,-0.0995,-0.0995,0,0,-0.1028,-0.1039,-0.1028,-0.1026,-0.103,-0.1018,-0.1016,-0.0999,-0.1002,-0.0999,-0.0998,-0.0992,-0.0985,-0.0985,-0.0994,-0.0995,0,0,0,-0.1034,-0.104,-0.1031,-0.1027,-0.1022,-0.1017,-0.1016,-0.1003,-0.0999,-0.0998,-0.0992,-0.0985,-0.0984,-0.0994,-0.0994,-0.1016,0,0,0,-0.1034,-0.1044,-0.1032,-0.1038,-0.1023,-0.1012,-0.102,-0.1,-0.0998,-0.0992,-0.0985,-0.0984,-0.0994,-0.0994,-0.1015,-0.1024,0,0,0,-0.1041,-0.1044,-0.1043,-0.1039,-0.103,-0.1012,-0.1007,-0.0999,-0.0994,-0.0985,-0.0984,-0.0994,-0.0994,-0.1014,-0.1023,-0.1031,0,0,0,-0.1052,-0.1061,-0.1043,-0.1052,-0.103,-0.1026,-0.1007,-0.1003,-0.0998,-0.0985,-0.0994,-0.0994,-0.1014,-0.1022,-0.103,-0.104,-0.1046,0,0,-0.107,-0.1064,-0.1068,-0.1051,-0.1053,-0.1028,-0.1033,-0.1017,-0.1005,-0.0999,-0.0999,-0.1015,-0.1022,-0.1031,-0.1071,-0.1075,0,0,0,-0.1078,-0.1081,-0.1079,-0.1075,-0.1063,-0.1054,-0.1036,-0.103,-0.1024,-0.1004,-0.102,-0.1024,-0.1028,-0.1033,-0.1036,-0.104,-0.0997,-0.0997,-0.0997,-0.112,-0.1105,-0.1111,-0.1095,-0.1091,-0.1073,-0.1068,-0.1057,-0.1043,-0.1047,-0.1045,-0.1071,-0.1077,-0.1079,-0.1083,-0.1049,-0.1049,-0.1049,-0.1049,-0.1146,-0.1148,-0.113,-0.113,-0.1115,-0.1114,-0.1098,-0.1088,-0.1085,-0.1071,-0.1074,-0.106,-0.1084,-0.1087,-0.105,-0.105,-0.105,-0.105,-0.105,-0.1172,-0.1171,-0.1164,-0.1157,-0.1154,-0.1136,-0.1135,-0.1121,-0.1107,-0.1111,-0.1108,-0.1107,-0.1106,-0.111,-0.111,-0.111,-0.111,-0.1111,-0.1111,-0.1202,-0.1194,-0.1195,-0.1184,-0.1181,-0.1174,-0.1157,-0.1152,-0.1144,-0.1134,-0.1134,-0.112,-0.1089,-0.1083,-0.1112,-0.1112,-0.1112,-0.1111,-0.1111,-0.1234,-0.1225,-0.1227,-0.1223,-0.121,-0.1208,-0.1191,-0.1184,-0.1178,-0.1178,-0.1164,-0.1144,-0.1136,-0.1133,-0.1127,-0.1166,-0.1166,-0.1166,-0.1166,-0.1257,-0.1252,-0.1251,-0.1246,-0.124,-0.1225,-0.1228,-0.1215,-0.12,-0.1196,-0.1189,-0.118,-0.1177,-0.1171,-0.1167,-0.1162,-0.1209,-0.1209,-0.1209,-0.1276,-0.1271,-0.1276,-0.1262,-0.1251,-0.1243,-0.1245,-0.1241,-0.1222,-0.121,-0.1193,-0.1191,-0.1177,-0.1172,-0.116,-0.1154,-0.1143,0,0]},{"header":{"parameterUnit":"m.s-1","parameterCategory":1,"la1":30.2992,"la2":30.254,"lo1":-89.0895,"lo2":-89.0443,"dy":0.0025,"dx":0.0025,"nx":19,"ny":19,"refTime":"2026-03-20T09:00:00:Z","depth":0,"parameterNumber":3,"parameterNumberName":"V-component_of_WINDS"},"data":[0,0,0,2.2551,2.2549,2.2479,2.2479,2.2381,2.2381,0,0,0,0,0,0,0,0,0,0,0,2.257,2.2569,2.2551,2.2549,2.2479,2.2479,2.2382,2.2381,0,0,0,0,0,0,0,0,0,0,0,2.257,2.2569,2.2568,2.2549,2.2479,2.2479,2.2382,2.2437,0,0,0,0,0,0,0,0,0,0,2.2506,2.2522,2.2569,2.2568,2.2548,2.2479,2.2479,2.2439,2.2433,2.2411,0,2.2393,0,2.2385,2.2374,2.2373,0,0,0,2.2549,2.2528,2.2511,2.2568,2.2548,2.2479,2.2511,2.2436,2.2429,2.2403,2.2392,2.2388,2.2384,2.2373,2.2373,2.2247,2.2246,0,0,2.2553,2.2555,2.2515,2.2506,2.252,2.2513,2.2508,2.2432,2.2419,2.2391,2.2386,2.2382,2.2373,2.2372,2.2247,2.2247,0,0,0,2.2564,2.2558,2.2543,2.251,2.2498,2.2511,2.2506,2.2422,2.2418,2.2385,2.2381,2.2372,2.2371,2.2248,2.2247,2.2218,0,0,0,2.2566,2.2564,2.2545,2.2545,2.2499,2.246,2.2498,2.2423,2.2414,2.2382,2.2372,2.237,2.2249,2.2248,2.222,2.2203,0,0,0,2.2575,2.2565,2.2555,2.2545,2.2516,2.2461,2.2452,2.2421,2.2412,2.2373,2.2369,2.2249,2.2248,2.2222,2.2206,2.2169,0,0,0,2.2583,2.253,2.2555,2.2493,2.2516,2.2445,2.2452,2.2399,2.2363,2.2371,2.2249,2.2247,2.2223,2.2208,2.2171,2.2136,2.2122,0,0,2.2517,2.2522,2.2486,2.2506,2.2431,2.2456,2.2375,2.234,2.2333,2.2275,2.2272,2.222,2.2207,2.2169,2.205,2.2039,0,0,0,2.2466,2.2439,2.2419,2.2386,2.2359,2.2333,2.231,2.2296,2.2247,2.2305,2.2197,2.2189,2.2167,2.215,2.2141,2.212,2.224,2.2241,2.2241,2.2373,2.2369,2.2308,2.2295,2.2263,2.2239,2.2211,2.2188,2.2193,2.2168,2.215,2.2078,2.2058,2.2051,2.203,2.2133,2.2133,2.2133,2.2133,2.2273,2.2234,2.2243,2.2186,2.2181,2.2133,2.2107,2.2112,2.2064,2.2092,2.2072,2.21,2.204,2.202,2.2131,2.2131,2.2131,2.2132,2.2132,2.221,2.219,2.2176,2.2127,2.2089,2.2077,2.2031,2.2028,2.2025,2.2006,2.1985,2.1985,2.1982,2.1997,2.1996,2.1996,2.1996,2.1996,2.1996,2.2148,2.2134,2.2096,2.2062,2.204,2.201,2.1985,2.1962,2.1935,2.1936,2.1936,2.1941,2.2036,2.2058,2.1992,2.1992,2.1993,2.1993,2.1994,2.2043,2.2067,2.2009,2.1986,2.1945,2.1906,2.1905,2.1857,2.1837,2.1814,2.1824,2.1896,2.19,2.1907,2.1925,2.1827,2.1827,2.1827,2.1827,2.1988,2.1991,2.193,2.1893,2.1858,2.185,2.1781,2.176,2.1743,2.1729,2.1744,2.1768,2.1776,2.1775,2.1785,2.1802,2.1675,2.1675,2.1675,2.1921,2.1921,2.1863,2.1849,2.1816,2.1788,2.1721,2.1677,2.1661,2.1669,2.1718,2.1724,2.1764,2.1778,2.1784,2.18,2.183,0,0]}]]